FW4241 Weather Reports


time (UTC)temp
F
wind
direction
speed
knots
gust
knots
rain 1hr
in
rain 24hr
in
rain mn
in
humidity
%
barometer
mb
20260503194551 85 39 0.9 4.3 0.00 0.00 0.00 44 1010.3
20260503193106 83 225 0.9 3.5 0.00 0.00 0.00 46 1010.4
20260503191515 81 43 0.0 3.5 0.00 0.00 0.00 46 1010.7
20260503190035 80 279 0.0 5.2 0.00 0.00 0.00 47 1010.8
20260503184509 78 100 0.9 4.3 0.00 0.00 0.00 50 1010.9
20260503183011 76 298 0.0 5.2 0.00 0.00 0.00 54 1011.2
20260503181501 77 261 1.7 4.3 0.00 0.00 0.00 53 1011.3
20260503180100 75 111 0.9 4.3 0.00 0.00 0.00 58 1011.5
20260503174525 73 276 0.9 4.3 0.00 0.00 0.00 61 1011.6
20260503173022 72 242 0.9 5.2 0.00 0.00 0.00 63 1011.5
20260503171531 72 263 1.7 3.5 0.00 0.00 0.00 62 1011.8
20260503081539 54 74 0.0 0.0 0.00 0.03 0.00 93 1012.6
20260503071609 55 74 0.0 0.0 0.00 0.03 0.00 92 1012.8
20260503054529 58 66 0.0 1.7 0.00 0.03 0.00 89 1012.8
20260503053021 58 164 0.0 0.0 0.00 0.03 0.00 88 1012.5
20260503051519 59 164 0.0 0.9 0.00 0.03 0.00 86 1012.6
20260503050019 60 81 0.0 0.9 0.00 0.03 0.00 86 1012.7
20260503044517 60 130 0.0 2.6 0.00 0.03 0.00 85 1012.8
20260503043051 61 70 0.0 0.0 0.00 0.03 0.00 84 1012.9
20260503041547 62 70 0.0 0.9 0.00 0.03 0.00 82 1012.8
20260503040044 62 83 0.0 0.9 0.00 0.03 0.00 81 1012.5
20260503034544 63 74 0.0 0.9 0.00 0.03 0.00 79 1012.6
20260503033046 64 79 0.0 1.7 0.00 0.03 0.00 77 1012.3
20260503031543 64 229 0.0 0.0 0.00 0.03 0.00 76 1012.3
20260503030038 65 229 0.0 0.9 0.00 0.03 0.00 75 1012.1
20260503024539 65 229 0.0 6.1 0.00 0.03 0.00 75 1012.1
20260503023037 66 276 1.7 7.8 0.00 0.03 0.00 73 1012.2
20260503021540 68 229 5.2 13.0 0.00 0.03 0.00 70 1012.2
20260503020039 72 169 1.7 4.3 0.00 0.03 0.00 64 1011.9
20260503014602 72 121 0.0 2.6 0.00 0.03 0.00 63 1011.3
20260503013039 72 121 0.0 2.6 0.00 0.03 0.00 62 1011.3
20260503011505 73 67 0.0 0.9 0.00 0.03 0.00 60 1011.2
20260503010003 73 226 0.0 1.7 0.00 0.03 0.00 59 1011.2
20260503004503 73 220 1.7 3.5 0.00 0.03 0.00 59 1011.2
20260503003101 73 232 0.0 5.2 0.00 0.03 0.00 58 1011.2
20260503001602 73 257 0.0 3.5 0.00 0.03 0.00 57 1011.2
20260503000059 73 256 0.0 3.5 0.00 0.03 0.00 57 1011.4
20260502234555 73 70 0.9 3.5 0.00 0.03 0.00 58 1011.5
20260502233053 71 221 1.7 6.1 0.00 0.03 0.00 61 1011.6
20260502231548 72 209 0.9 5.2 0.00 0.03 0.00 62 1011.9
20260502230047 71 259 1.7 7.0 0.00 0.03 0.00 61 1012.0
20260502224516 71 219 1.7 4.3 0.00 0.03 0.00 60 1012.2
20260502223013 70 252 0.0 5.2 0.00 0.03 0.00 62 1012.6
20260502221507 69 75 1.7 5.2 0.00 0.03 0.00 62 1012.8
20260502220005 69 209 0.0 6.1 0.00 0.03 0.00 64 1013.0
20260502214506 68 127 0.9 4.3 0.00 0.03 0.00 64 1013.1
20260502213001 68 71 0.9 5.2 0.00 0.03 0.00 64 1013.5
20260502211538 67 49 2.6 5.2 0.00 0.03 0.00 65 1013.6
20260502210033 67 245 2.6 5.2 0.00 0.03 0.00 65 1013.7
20260502204519 66 174 3.5 6.1 0.00 0.03 0.00 66 1014.3
20260502203016 64 51 0.0 4.3 0.00 0.03 0.00 69 1014.3
20260502201512 63 75 1.7 4.3 0.00 0.03 0.00 71 1014.5
20260502200013 63 191 0.0 5.2 0.00 0.03 0.00 72 1014.5